STARLINK-4528 (53399 NORAD) Tracking and Keplerian Element Data

This shows tracking and keplerian element data for the satellite.

Feedback or suggestion? Click here.




ElementValue
Catalog53399
NameSTARLINK-4528
Epoch Orbit130
Epoch Day269.91667824
Epoch Year2022
RAAN19.4547
Inclination53.2185
Eccentricity0.000163
Argument of Perigee51.0858
Mean Anonmoly200.6829
Mean Motion15.08885769
Decay Rate-0.00097634
L11 53399U 22097M 22269.91667824 -.00097634 00000+0 -61927-2 0 9990
L22 53399 53.2185 19.4547 0001630 51.0858 200.6829 15.08885769 1300

Live tracking and technical data element details for STARLINK-4528 (NORAD 53399). STARLINK-4528 can be tracked NOW for your location showing map with azimuth and elevation plus other details from your city location.

Track the satellite on the map from your city or location and see movement details for azimuth, elevation, latitude, longitude, range, height, and movement on the map or in text.







IsCatalogInMostPopularTable: catalog: 53399, numindb: 6
Update: records affected: 1



GetName: 53399 STARLINK-4528

Hit Count: updated at: Fri, 30 Sep 2022 02:17:54 GMT